Погода в Буре

Россия / Забайкальский край     50°45′10″N   119°26′53″E
темп.,
°C
ветер,
м/с
пор.,
м/с
влажн.,
%
обл.,
%
осадки,
мм/ч
давл.,
гПа
погр.,
м
7 июля, чт
чт700:00+14ююв339756 1.9 99859
03:00+13ююв349695 2.0 99880
06:00+13ю499622 0.0 998297
09:00+19юз59690 0.0 998688
12:00+25зюз710420 0.0 9972002
15:00+27зюз811315 0.0 9972738
18:00+22юз91253100 0.0 998579
21:00+19юв2260100 0.1 99926
8 июля, пт
пт800:00+15св2294100 2.8 100050
03:00+15всв1295100 4.1 100038
06:00+15всв2598100 3.4 998254
09:00+15вюв3796100 9.4 997424
12:00+16юв0194100 3.5 997246
15:00+17с559269 7.1 995473
18:00+15ссз5996100 2.9 996511
21:00+12ссз3896100 5.3 997471
9 июля, сб
сб900:00+12с3697100 0.3 997380
03:00+12с2598100 0.8 996296
06:00+12ссз2598100 0.9 996367
09:00+12ссз3797100 1.7 997495
12:00+13сз2696100 1.9 998483
15:00+13зсз2797100 4.7 999455
18:00+16сз488686 0.8 999446
21:00+13сз3887100 1.0 1000149
10 июля, вс
вс1000:00+12зсз228616 0.0 100116
03:00+10зюз11888 0.0 100210
06:00+10ююз228949 0.0 100320
09:00+17зюз12710 0.0 1003352
12:00+21зюз45552 0.0 10031375
15:00+24зюз464982 0.0 10022065
18:00+24з235299 0.0 1002941
21:00+18вюв11688 0.0 100311
11 июля, пн
пн1100:00+15вюв117933 0.0 100511
03:00+16вюв227835 0.3 100614
06:00+15всв1181100 0.0 100711
09:00+20вюв126748 0.0 1007289
12:00+24юв345379 0.0 1007832
15:00+27юв354593 0.0 10051806
18:00+28ююв245099 0.0 10041807
21:00+22в4106790 0.0 1005212